KC5AYO Weather Reports


Display with metric or nautical units.
time (UTC)temp
F
wind
direction
speed
MPH
gust
MPH
rain 1hr
in
rain 24hr
in
rain mn
in
humidity
%
barometer
mb
20260508122026 50 176 0.0 2.0 0.00 0.00 0.00 70 1013.9
20260508121526 49 169 0.0 2.0 0.00 0.00 0.00 70 1014.0
20260508121025 49 180 0.0 2.0 0.00 0.00 0.00 69 1014.0
20260508120524 48 190 0.0 0.0 0.00 0.00 0.00 70 1014.0
20260508120024 48 190 0.0 1.0 0.00 0.00 0.00 70 1013.8
20260508115523 48 189 0.0 1.0 0.00 0.00 0.00 70 1013.9
20260508115023 47 189 0.0 1.0 0.00 0.00 0.00 70 1013.9
20260508114522 47 190 0.0 0.0 0.00 0.00 0.00 70 1013.9
20260508114022 47 166 0.0 0.0 0.00 0.00 0.00 70 1013.8
20260508113524 47 200 0.0 0.0 0.00 0.00 0.00 70 1013.7
20260508113022 47 200 0.0 0.0 0.00 0.00 0.00 70 1013.7
20260508112520 47 200 0.0 2.0 0.00 0.00 0.00 69 1013.8
20260508112020 47 200 0.0 2.0 0.00 0.00 0.00 69 1013.6
20260508111520 46 147 0.0 0.0 0.00 0.00 0.00 69 1013.7
20260508111022 46 129 0.0 2.0 0.00 0.00 0.00 69 1013.6
20260508110519 46 121 0.0 2.0 0.00 0.00 0.00 70 1013.5
20260508110019 46 113 0.0 0.0 0.00 0.00 0.00 70 1013.5
20260508105519 46 188 0.0 0.0 0.00 0.00 0.00 70 1013.5
20260508105018 46 188 0.0 0.0 0.00 0.00 0.00 70 1013.4
20260508104517 46 188 0.0 0.0 0.00 0.00 0.00 69 1013.4
20260508104019 46 188 0.0 0.0 0.00 0.00 0.00 69 1013.3
20260508103517 46 188 0.0 0.0 0.00 0.00 0.00 69 1013.3
20260508103021 46 188 0.0 0.0 0.00 0.00 0.00 69 1013.4
20260508102518 47 188 0.0 0.0 0.00 0.00 0.00 68 1013.4
20260508102015 47 196 0.0 0.0 0.00 0.00 0.00 68 1013.3
20260508101516 47 196 0.0 0.0 0.00 0.00 0.00 68 1013.3
20260508101014 47 209 0.0 0.0 0.00 0.00 0.00 68 1013.3
20260508100514 47 209 0.0 0.0 0.00 0.00 0.00 68 1013.3
20260508100013 47 209 0.0 0.0 0.00 0.00 0.00 67 1013.3
20260508095513 47 209 0.0 0.0 0.00 0.00 0.00 67 1013.3
20260508095013 47 209 0.0 0.0 0.00 0.00 0.00 68 1013.2
20260508094511 47 209 0.0 0.0 0.00 0.00 0.00 68 1013.2
20260508094011 48 209 0.0 0.0 0.00 0.00 0.00 68 1013.3
20260508093510 48 209 0.0 0.0 0.00 0.00 0.00 67 1013.3
20260508093010 49 209 0.0 0.0 0.00 0.00 0.00 67 1013.3
20260508092508 49 209 0.0 1.0 0.00 0.00 0.00 65 1013.3
20260508092012 49 209 0.0 1.0 0.00 0.00 0.00 63 1013.3
20260508091513 49 205 0.0 0.0 0.00 0.00 0.00 63 1013.3
20260508091009 49 166 0.0 0.0 0.00 0.00 0.00 64 1013.3
20260508090508 50 204 0.0 0.0 0.00 0.00 0.00 62 1013.3
20260508090010 50 205 0.0 1.0 0.00 0.00 0.00 61 1013.3
20260508085512 50 205 0.0 2.0 0.00 0.00 0.00 60 1013.3
20260508085007 50 202 0.0 2.0 0.00 0.00 0.00 60 1013.3
20260508084507 51 191 0.0 2.0 0.00 0.00 0.00 60 1013.3
20260508084008 51 221 0.0 2.0 0.00 0.00 0.00 59 1013.3
20260508083508 51 193 0.0 2.0 0.00 0.00 0.00 59 1013.3
20260508083007 51 190 0.0 2.0 0.00 0.00 0.00 59 1013.3
20260508082510 52 221 0.0 2.0 0.00 0.00 0.00 57 1013.4
20260508082010 52 111 0.0 5.0 0.00 0.00 0.00 56 1013.3
20260508081510 52 166 0.0 5.0 0.00 0.00 0.00 56 1013.3
20260508081010 52 158 0.0 2.0 0.00 0.00 0.00 55 1013.4
20260508080506 52 161 0.0 2.0 0.00 0.00 0.00 55 1013.3
20260508080006 52 172 0.0 3.0 0.00 0.00 0.00 56 1013.4
20260508075506 52 150 0.0 3.0 0.00 0.00 0.00 57 1013.3
20260508075005 52 200 0.0 3.0 0.00 0.00 0.00 55 1013.2
20260508074505 52 188 0.0 4.0 0.00 0.00 0.00 55 1013.4
20260508074005 52 136 0.0 4.0 0.00 0.00 0.00 56 1013.4
20260508073505 52 181 0.0 3.0 0.00 0.00 0.00 56 1013.5
20260508073004 52 152 0.0 6.0 0.00 0.00 0.00 55 1013.5
20260508072505 52 186 0.0 2.0 0.00 0.00 0.00 56 1013.5
20260508072002 52 159 0.0 2.0 0.00 0.00 0.00 57 1013.6
20260508071503 51 98 0.0 2.0 0.00 0.00 0.00 60 1013.6
20260508071100 51 167 0.0 2.0 0.00 0.00 0.00 59 1013.7
20260508070604 51 153 0.0 2.0 0.00 0.00 0.00 59 1013.6
20260508070059 51 163 0.0 2.0 0.00 0.00 0.00 59 1013.6
20260508065558 50 153 0.0 2.0 0.00 0.00 0.00 61 1013.6
20260508065059 50 163 0.0 2.0 0.00 0.00 0.00 61 1013.6
20260508064558 50 175 0.0 2.0 0.00 0.00 0.00 62 1013.6
20260508064058 49 189 0.0 2.0 0.00 0.00 0.00 63 1013.6
20260508063558 49 165 0.0 2.0 0.00 0.00 0.00 63 1013.7
20260508063104 49 203 0.0 2.0 0.00 0.00 0.00 65 1013.6
20260508062600 49 173 0.0 1.0 0.00 0.00 0.00 64 1013.7
20260508062057 48 173 0.0 2.0 0.00 0.00 0.00 64 1013.8
20260508061556 48 173 0.0 2.0 0.00 0.00 0.00 65 1013.9
20260508061055 48 182 0.0 2.0 0.00 0.00 0.00 64 1013.8
20260508060656 48 197 0.0 2.0 0.00 0.00 0.00 63 1014.0
20260508060053 48 184 0.0 1.0 0.00 0.00 0.00 63 1014.1
20260508055555 49 184 0.0 1.0 0.00 0.00 0.00 63 1014.2
20260508055052 49 182 0.0 2.0 0.00 0.00 0.00 63 1014.2
20260508054552 49 182 0.0 2.0 0.00 0.00 0.00 62 1014.4
20260508054050 49 182 0.0 2.0 0.00 0.00 0.00 62 1014.3
20260508053550 49 196 0.0 2.0 0.00 0.00 0.00 61 1014.4
20260508053102 49 196 0.0 2.0 0.00 0.00 0.00 61 1014.3
20260508052550 49 191 0.0 2.0 0.00 0.00 0.00 61 1014.4
20260508052050 49 195 0.0 2.0 0.00 0.00 0.00 62 1014.4
20260508051548 50 196 0.0 2.0 0.00 0.00 0.00 61 1014.3
20260508051050 50 200 0.0 2.0 0.00 0.00 0.00 60 1014.4
20260508050547 50 205 0.0 2.0 0.00 0.00 0.00 60 1014.3
20260508050049 50 182 0.0 0.0 0.00 0.00 0.00 61 1014.2
20260508045546 50 186 0.0 0.0 0.00 0.00 0.00 61 1014.3
20260508045046 50 184 0.0 0.0 0.00 0.00 0.00 60 1014.4
20260508044546 50 184 0.0 0.0 0.00 0.00 0.00 60 1014.3
20260508044045 50 186 0.0 0.0 0.00 0.00 0.00 61 1014.3
20260508043544 50 186 0.0 0.0 0.00 0.00 0.00 61 1014.4
20260508043056 50 186 0.0 0.0 0.00 0.00 0.00 60 1014.4
20260508042544 51 186 0.0 0.0 0.00 0.00 0.00 59 1014.4
20260508042043 51 186 0.0 0.0 0.00 0.00 0.00 59 1014.4
20260508041550 51 186 0.0 0.0 0.00 0.00 0.00 59 1014.3
20260508041043 51 183 0.0 0.0 0.00 0.00 0.00 58 1014.2
20260508040541 51 260 0.0 0.0 0.00 0.00 0.00 60 1014.3
20260508040041 50 260 0.0 0.0 0.00 0.00 0.00 61 1014.3
20260508035542 50 260 0.0 0.0 0.00 0.00 0.00 61 1014.3
20260508035040 50 260 0.0 0.0 0.00 0.00 0.00 61 1014.4
20260508034540 50 260 0.0 0.0 0.00 0.00 0.00 61 1014.4
20260508034039 50 260 0.0 0.0 0.00 0.00 0.00 61 1014.4
20260508033539 50 260 0.0 0.0 0.00 0.00 0.00 61 1014.5
20260508033039 50 261 0.0 0.0 0.00 0.00 0.00 61 1014.4
20260508032540 50 262 0.0 0.0 0.00 0.00 0.00 61 1014.4
20260508032042 50 268 0.0 0.0 0.00 0.00 0.00 61 1014.4
20260508031539 50 268 0.0 0.0 0.00 0.00 0.00 61 1014.4
20260508031039 50 268 0.0 0.0 0.00 0.00 0.00 61 1014.4
20260508030538 50 268 0.0 0.0 0.00 0.00 0.00 62 1014.5
20260508030042 50 268 0.0 0.0 0.00 0.00 0.00 63 1014.5
20260508025538 50 268 0.0 0.0 0.00 0.00 0.00 64 1014.4
20260508025138 50 268 0.0 0.0 0.00 0.00 0.00 63 1014.3
20260508024540 50 273 0.0 0.0 0.00 0.00 0.00 66 1014.2
20260508024038 50 273 0.0 0.0 0.00 0.00 0.00 68 1014.3
20260508023538 50 273 0.0 0.0 0.00 0.00 0.00 68 1014.3
20260508023038 50 273 0.0 0.0 0.00 0.00 0.00 69 1014.2
20260508022537 50 273 0.0 0.0 0.00 0.00 0.00 68 1014.1
20260508022037 50 273 0.0 0.0 0.00 0.00 0.00 68 1014.1
20260508021543 50 273 0.0 0.0 0.00 0.00 0.00 68 1014.2
20260508021037 50 273 0.0 0.0 0.00 0.00 0.00 67 1014.1
20260508020536 51 273 0.0 0.0 0.00 0.00 0.00 67 1014.0
20260508020045 51 273 0.0 0.0 0.00 0.00 0.00 66 1013.9
20260508015536 51 273 0.0 0.0 0.00 0.00 0.00 66 1014.0
20260508015038 51 273 0.0 0.0 0.00 0.00 0.00 66 1013.9
20260508014539 51 273 0.0 0.0 0.00 0.00 0.00 64 1014.0
20260508014035 51 273 0.0 0.0 0.00 0.00 0.00 63 1014.0
20260508013535 52 273 0.0 0.0 0.00 0.00 0.00 62 1013.9
20260508013050 52 273 0.0 0.0 0.00 0.00 0.00 60 1014.0
20260508012536 52 273 0.0 0.0 0.00 0.00 0.00 63 1014.0
20260508012036 52 273 0.0 0.0 0.00 0.00 0.00 61 1014.0
20260508011539 53 273 0.0 0.0 0.00 0.00 0.00 58 1013.9
20260508011035 53 273 0.0 0.0 0.00 0.00 0.00 56 1013.8
20260508010535 54 273 0.0 0.0 0.00 0.00 0.00 54 1013.7
20260508010036 54 273 0.0 0.0 0.00 0.00 0.00 50 1013.9
20260508005534 54 273 0.0 0.0 0.00 0.00 0.00 51 1013.9
20260508005039 55 273 0.0 0.0 0.00 0.00 0.00 51 1013.9
20260508004534 56 273 0.0 0.0 0.00 0.00 0.00 47 1013.9
20260508004038 56 273 0.0 0.0 0.00 0.00 0.00 48 1013.8
20260508003537 57 273 0.0 0.0 0.00 0.00 0.00 46 1013.8
20260508003034 57 275 0.0 0.0 0.00 0.00 0.00 48 1013.7
20260508002534 57 275 0.0 0.0 0.00 0.00 0.00 46 1013.7
20260508002035 58 275 0.0 0.0 0.00 0.00 0.00 46 1013.7
20260508001558 58 275 0.0 2.0 0.00 0.00 0.00 46 1013.6
20260508001037 59 275 0.0 2.0 0.00 0.00 0.00 45 1013.6
20260508000533 60 169 0.0 2.0 0.00 0.00 0.00 44 1013.5
20260508000033 60 271 0.0 2.0 0.00 0.00 0.00 42 1013.4
20260507235533 60 299 0.0 2.0 0.00 0.00 0.00 41 1013.4
20260507235032 60 281 0.0 2.0 0.00 0.00 0.00 44 1013.4
20260507234535 60 281 0.0 2.0 0.00 0.00 0.00 42 1013.5
20260507234056 60 176 0.0 2.0 0.00 0.00 0.00 37 1013.4
20260507233533 61 256 0.0 2.0 0.00 0.00 0.00 42 1013.3
20260507233032 61 182 0.0 4.0 0.00 0.00 0.00 42 1013.3
20260507232534 61 297 0.0 4.0 0.00 0.00 0.00 42 1013.3
20260507232032 61 265 0.0 3.0 0.00 0.00 0.00 40 1013.3
20260507231536 61 323 0.0 2.0 0.00 0.00 0.00 35 1013.3
20260507231032 62 294 0.0 2.0 0.00 0.00 0.00 35 1013.4
20260507230532 62 103 0.0 3.0 0.00 0.00 0.00 37 1013.4
20260507230032 62 298 0.0 3.0 0.00 0.00 0.00 38 1013.3
20260507225531 62 277 0.0 2.0 0.00 0.00 0.00 36 1013.4
20260507225032 62 282 0.0 2.0 0.00 0.00 0.00 39 1013.3
20260507224541 62 309 0.0 2.0 0.00 0.00 0.00 38 1013.4
20260507224031 62 274 0.0 2.0 0.00 0.00 0.00 40 1013.3
20260507223531 62 302 0.0 3.0 0.00 0.00 0.00 41 1013.4
20260507223030 62 300 0.0 3.0 0.00 0.00 0.00 35 1013.5
20260507222530 61 211 0.0 2.0 0.00 0.00 0.00 38 1013.5
20260507222029 61 300 0.0 2.0 0.00 0.00 0.00 41 1013.5
20260507221529 61 289 0.0 2.0 0.00 0.00 0.00 38 1013.5
20260507221028 61 277 0.0 3.0 0.00 0.00 0.00 34 1013.4
20260507220528 61 249 0.0 3.0 0.00 0.00 0.00 41 1013.4
20260507220039 61 292 0.0 2.0 0.00 0.00 0.00 40 1013.4
20260507215530 61 146 0.0 2.0 0.00 0.00 0.00 40 1013.4
20260507215028 61 271 0.0 2.0 0.00 0.00 0.00 39 1013.3
20260507214535 61 267 0.0 2.0 0.00 0.00 0.00 36 1013.2
20260507214028 61 194 0.0 2.0 0.00 0.00 0.00 33 1013.2
20260507213528 61 276 0.0 2.0 0.00 0.00 0.00 33 1013.2
20260507213032 61 293 0.0 2.0 0.00 0.00 0.00 37 1013.3
20260507212526 61 223 0.0 3.0 0.00 0.00 0.00 35 1013.3
20260507212026 62 250 0.0 3.0 0.00 0.00 0.00 37 1013.3
20260507211525 61 200 1.0 3.0 0.00 0.00 0.00 34 1013.4
20260507211024 61 199 0.0 2.0 0.00 0.00 0.00 37 1013.5
20260507210522 61 219 0.0 2.0 0.00 0.00 0.00 41 1013.6
20260507210022 60 288 0.0 3.0 0.00 0.00 0.00 42 1013.6
20260507205522 60 271 0.0 3.0 0.00 0.00 0.00 36 1013.7
20260507205021 61 306 0.0 4.0 0.00 0.00 0.00 36 1013.9
20260507204521 60 301 1.0 4.0 0.00 0.00 0.00 36 1013.7
20260507204024 60 55 0.0 2.0 0.00 0.00 0.00 38 1013.7
20260507203520 60 82 0.0 4.0 0.00 0.00 0.00 34 1013.8
20260507203024 60 328 0.0 4.0 0.00 0.00 0.00 37 1013.9
20260507202519 60 312 0.0 2.0 0.00 0.00 0.00 37 1013.9
20260507202020 60 301 0.0 2.0 0.00 0.00 0.00 38 1013.9
20260507201519 60 81 0.0 5.0 0.00 0.00 0.00 36 1013.9
20260507201019 60 360 1.0 5.0 0.00 0.00 0.00 36 1014.0
20260507200521 60 322 0.0 6.0 0.00 0.00 0.00 36 1014.0
20260507200020 60 5 1.0 6.0 0.00 0.00 0.00 36 1014.1
20260507195518 61 324 1.0 8.0 0.00 0.00 0.00 36 1014.1
20260507195018 61 17 1.0 8.0 0.00 0.00 0.00 35 1013.9
20260507194517 61 114 0.0 2.0 0.00 0.00 0.00 34 1014.0
20260507194016 61 328 0.0 2.0 0.00 0.00 0.00 40 1014.1
20260507193515 61 308 0.0 5.0 0.00 0.00 0.00 40 1014.2
20260507193015 60 327 1.0 5.0 0.00 0.00 0.00 34 1014.4
20260507192513 61 355 1.0 4.0 0.00 0.00 0.00 40 1014.4
20260507192012 60 296 0.0 4.0 0.00 0.00 0.00 39 1014.4
20260507191513 59 304 0.0 5.0 0.00 0.00 0.00 41 1014.4
20260507191013 60 346 2.0 5.0 0.00 0.00 0.00 36 1014.4
20260507190512 59 85 0.0 3.0 0.00 0.00 0.00 44 1014.4
20260507190011 60 360 1.0 3.0 0.00 0.00 0.00 44 1014.5
20260507185513 59 319 0.0 4.0 0.00 0.00 0.00 41 1014.5
20260507185010 58 84 0.0 5.0 0.00 0.00 0.00 41 1014.6
20260507184510 59 13 1.0 5.0 0.00 0.00 0.00 41 1014.5
20260507184015 59 13 1.0 3.0 0.00 0.00 0.00 40 1014.5
20260507183510 59 92 0.0 3.0 0.00 0.00 0.00 38 1014.6
20260507183011 60 301 1.0 3.0 0.00 0.00 0.00 37 1014.6
20260507182509 59 5 0.0 4.0 0.00 0.00 0.00 39 1014.7
20260507182009 59 84 1.0 4.0 0.00 0.00 0.00 38 1014.6
20260507181507 59 29 0.0 3.0 0.00 0.00 0.00 40 1014.7
20260507181007 58 80 1.0 3.0 0.00 0.00 0.00 41 1014.7
20260507180508 58 82 0.0 3.0 0.00 0.00 0.00 39 1014.7
20260507180008 58 72 1.0 3.0 0.00 0.00 0.00 42 1014.8
20260507175504 58 78 1.0 4.0 0.00 0.00 0.00 44 1014.9
20260507175004 58 32 1.0 4.0 0.00 0.00 0.00 38 1015.2
20260507174504 59 5 1.0 4.0 0.00 0.00 0.00 39 1015.2
20260507174004 58 327 0.0 3.0 0.00 0.00 0.00 38 1015.1
20260507173503 58 82 0.0 3.0 0.00 0.00 0.00 40 1015.2
20260507173100 58 360 0.0 4.0 0.00 0.00 0.00 41 1015.2
20260507172603 58 329 0.0 4.0 0.00 0.00 0.00 38 1015.3
20260507172059 58 338 0.0 3.0 0.00 0.00 0.00 38 1015.3
20260507171603 58 79 0.0 4.0 0.00 0.00 0.00 39 1015.5
20260507171058 57 300 1.0 4.0 0.00 0.00 0.00 41 1015.6
20260507170556 57 355 0.0 4.0 0.00 0.00 0.00 38 1015.6
20260507170055 56 9 1.0 4.0 0.00 0.00 0.00 39 1015.7
20260507165554 57 355 1.0 4.0 0.00 0.00 0.00 45 1015.7
20260507165053 56 9 1.0 4.0 0.00 0.00 0.00 46 1015.8
20260507164553 56 351 0.0 6.0 0.00 0.00 0.00 45 1015.8
20260507164056 56 81 2.0 7.0 0.00 0.00 0.00 47 1015.8
20260507163553 56 59 1.0 4.0 0.00 0.00 0.00 41 1015.8
20260507163054 56 9 0.0 4.0 0.00 0.00 0.00 46 1015.9
20260507162551 55 9 1.0 4.0 0.00 0.00 0.00 43 1015.8
20260507162051 55 360 1.0 4.0 0.00 0.00 0.00 41 1015.9
20260507161550 55 60 1.0 4.0 0.00 0.00 0.00 43 1016.0
20260507161048 55 134 0.0 4.0 0.00 0.00 0.00 41 1016.0
20260507160548 55 355 0.0 4.0 0.00 0.00 0.00 41 1016.0
20260507160052 55 81 1.0 4.0 0.00 0.00 0.00 41 1016.0
20260507155546 54 360 1.0 4.0 0.00 0.00 0.00 43 1016.0
20260507155046 54 245 1.0 4.0 0.00 0.00 0.00 41 1016.0
20260507154548 54 319 0.0 4.0 0.00 0.00 0.00 45 1016.1
20260507154045 54 360 1.0 4.0 0.00 0.00 0.00 41 1016.2
20260507153545 54 9 0.0 4.0 0.00 0.00 0.00 44 1016.1
20260507153050 54 9 1.0 4.0 0.00 0.00 0.00 44 1016.2
20260507152544 54 217 0.0 3.0 0.00 0.00 0.00 44 1016.2
20260507152043 53 350 0.0 3.0 0.00 0.00 0.00 45 1016.2
20260507151541 53 271 0.0 4.0 0.00 0.00 0.00 42 1016.2
20260507151042 53 337 0.0 5.0 0.00 0.00 0.00 41 1016.1
20260507150541 53 27 0.0 5.0 0.00 0.00 0.00 44 1016.1
20260507150141 53 76 0.0 5.0 0.00 0.00 0.00 45 1016.0
20260507145540 53 318 1.0 5.0 0.00 0.00 0.00 41 1016.1
20260507145039 53 22 0.0 4.0 0.00 0.00 0.00 45 1016.0
20260507144539 53 19 0.0 4.0 0.00 0.00 0.00 46 1016.2
20260507144039 52 349 1.0 4.0 0.00 0.00 0.00 47 1016.1
20260507143538 52 11 0.0 3.0 0.00 0.00 0.00 45 1016.1
20260507143037 52 12 0.0 3.0 0.00 0.00 0.00 46 1016.1
20260507142537 52 5 0.0 3.0 0.00 0.00 0.00 47 1016.1
20260507142036 52 341 0.0 2.0 0.00 0.00 0.00 50 1016.1
20260507141535 52 323 0.0 2.0 0.00 0.00 0.00 47 1016.0
20260507141034 51 300 0.0 2.0 0.00 0.00 0.00 52 1016.0
20260507140532 51 300 0.0 3.0 0.00 0.00 0.00 51 1016.0
20260507140032 51 305 1.0 3.0 0.00 0.00 0.00 49 1016.0
20260507135534 51 360 0.0 2.0 0.00 0.00 0.00 53 1016.0
20260507135030 50 279 0.0 2.0 0.00 0.00 0.00 54 1016.0
20260507134529 50 325 0.0 2.0 0.00 0.00 0.00 58 1016.1
20260507134027 50 282 0.0 2.0 0.00 0.00 0.00 57 1016.0
20260507133527 49 282 0.0 2.0 0.00 0.00 0.00 57 1016.1
20260507133026 49 309 0.0 2.0 0.00 0.00 0.00 59 1016.1
20260507132524 49 294 0.0 2.0 0.00 0.00 0.00 58 1016.1
20260507132023 48 315 0.0 2.0 0.00 0.00 0.00 62 1016.0
20260507131530 48 338 0.0 2.0 0.00 0.00 0.00 65 1016.0
20260507131022 48 341 0.0 2.0 0.00 0.00 0.00 64 1016.1
20260507130521 48 312 0.0 1.0 0.00 0.00 0.00 64 1016.0
20260507130019 47 312 0.0 1.0 0.00 0.00 0.00 64 1016.0
20260507125518 47 316 0.0 2.0 0.00 0.00 0.00 68 1016.0
20260507125018 47 318 0.0 2.0 0.00 0.00 0.00 67 1016.0
20260507124516 46 314 0.0 2.0 0.00 0.00 0.00 71 1016.1
20260507124016 46 315 0.0 2.0 0.00 0.00 0.00 70 1016.0
20260507123515 46 325 0.0 2.0 0.00 0.00 0.00 71 1016.0
20260507123013 45 316 0.0 2.0 0.00 0.00 0.00 73 1016.0
20260507122512 44 282 0.0 2.0 0.00 0.00 0.00 76 1016.0